#timestamp,LO_Frequency,Hit,StdDev 
1552820415.7,286046998.6,N
1552820435.5,286047000.7,N
1552820455.3,286047000.6,N
1552820475.2,286047002.4,N
1552820495.0,286046999.7,N
1552820495.9,286046999.7,N
1552820515.8,286047000.3,N
1552820535.6,286047000.9,N
1552820555.4,286047002.8,N
1552820575.3,286047000.3,N
1552820595.1,286047000.5,N
1552820615.8,286047002.2,N
1552820635.7,286047001.9,N
1552820655.5,286047001.7,N
1552820675.4,286047000.1,N
1552820695.2,286047000.7,N
1552820715.0,286047000.7,N
1552820715.9,286047000.7,N
1552820735.8,286047001.1,N
1552820755.6,286047000.0,N
1552820775.4,286047002.2,N
1552820795.3,286047002.4,N
1552820815.1,286047001.2,N
1552820835.9,286047000.9,N
1552820855.7,286046998.3,N
1552820875.5,286046998.8,N
1552820895.4,286046998.8,N
1552820915.2,286046996.9,N
1552820935.0,286046999.6,N
1552820935.9,286046999.6,N
1552820955.8,286046996.5,N
1552820975.6,286046998.6,N
1552820995.5,286047000.8,N
1552821015.3,286047000.4,N
1552821035.1,286047002.2,N
1552821055.9,286047002.3,N
1552821075.7,286046999.9,N
1552821095.6,286047002.8,N
1552821115.4,286047002.7,N
1552821135.3,286047001.4,N
1552821155.1,286047003.9,N
1552821156.0,286047003.9,N
1552821175.8,286047001.3,N
1552821195.7,286047002.0,N
1552821215.5,286047002.5,N
1552821235.3,286047003.2,N
1552821255.2,286047003.8,N
1552821275.0,286047001.8,N
1552821275.9,286047001.8,N
1552821295.8,286047003.6,N
1552821315.6,286047002.0,N
1552821335.4,286047002.8,N
1552821355.3,286047002.8,N
1552821375.1,286047000.5,N
1552821395.8,286047000.4,N
1552821415.7,286047000.5,N
1552821435.5,286047000.3,N
1552821455.4,286047001.6,N
1552821475.2,286047001.8,N
1552821495.1,286047002.4,N
1552821496.0,286047002.4,N
1552821515.8,286046999.7,N
1552821535.6,286047001.4,N
1552821555.5,286047003.9,Y
1552821575.3,286047002.6,P
1552821595.2,286047001.1,P
1552821615.9,286047001.0,N
1552821635.7,286047000.3,N
1552821655.6,286047000.8,N
1552821675.4,286047001.1,N
1552821695.2,286047000.9,N
1552821715.1,286047000.6,N
1552821716.0,286047000.6,N
1552821735.8,286047001.1,N
1552821755.7,286046999.7,N
1552821775.5,286047000.6,N
1552821795.3,286047000.6,N
1552821815.2,286046998.2,N
1552821835.9,286047000.3,N
1552821855.7,286047001.0,N
1552821875.6,286046998.2,N
1552821895.4,286047000.8,N
1552821915.2,286046998.1,N
1552821935.1,286047000.1,N
1552821936.0,286047000.1,N
1552821955.8,286047002.8,N
1552821975.7,286047002.0,N
1552821995.5,286047001.9,N
1552822015.3,286047002.6,N
1552822035.2,286047000.3,N
1552822055.0,286047000.0,N
1552822055.9,286047000.0,N
1552822075.8,286047000.4,N
1552822095.6,286047000.1,N
1552822115.4,286046999.7,N
1552822135.3,286047000.2,N
1552822155.1,286047000.5,N
1552822175.9,286046999.8,N
1552822195.7,286047000.4,N
1552822215.5,286046998.1,N
1552822235.4,286046998.2,N
1552822255.2,286047002.8,N
1552822275.0,286047000.0,N
1552822275.9,286047000.0,N
1552822295.8,286047000.4,N
1552822315.6,286047000.2,N
1552822335.5,286047000.5,N
1552822355.3,286046998.7,N
1552822375.1,286046999.0,N
1552822395.9,286046999.1,N
1552822415.7,286047000.7,N
1552822435.5,286046998.6,N
1552822455.4,286047002.7,N
1552822475.2,286046998.2,N
1552822495.1,286047000.8,N
1552822496.0,286047000.8,N
1552822515.8,286047009.1,Y
1552822535.6,286047008.6,P
1552822555.5,286047003.3,N
1552822575.3,286047003.9,N
1552822595.1,286047002.4,N
1552822615.9,286047002.7,N
1552822635.7,286047002.0,N
1552822655.6,286047000.1,N
1552822675.4,286046998.6,N
1552822695.2,286046998.8,N
1552822715.1,286046995.5,N
1552822716.0,286046995.5,N
1552822735.8,286046995.3,N
1552822755.6,286046997.9,N
1552822775.5,286046995.7,N
1552822795.3,286046995.4,N
1552822815.2,286046994.9,N
1552822835.1,286046997.6,N
1552822836.0,286046997.6,N
1552822855.8,286046998.0,N
1552822875.7,286046995.5,N
1552822895.5,286046997.9,N
1552822915.3,286046995.1,N
1552822935.2,286046994.9,N
1552822955.0,286046997.9,N
1552822955.9,286046997.9,N
1552822975.7,286046998.0,N
1552822995.6,286046997.7,N
1552823015.4,286046995.2,N
1552823035.3,286046998.0,N
1552823055.1,286046994.9,N
1552823056.0,286046994.9,N
1552823075.8,286046995.3,N
1552823095.7,286046995.4,N
1552823115.5,286046995.4,N
1552823135.3,286046997.6,N
1552823155.2,286046997.8,N
1552823175.0,286046997.3,N
1552823175.9,286046997.3,N
1552823195.8,286046997.6,N
1552823215.6,286046996.8,N
1552823235.4,286046997.9,N
1552823255.3,286046995.3,Y
1552823275.1,286047000.9,P
1552823295.9,286046998.6,N
1552823315.7,286046998.7,N
1552823335.5,286046998.7,N
1552823355.4,286046998.8,N
1552823375.2,286046996.9,N
1552823395.0,286046996.5,N
1552823395.9,286046996.5,N
1552823415.8,286046997.7,N
1552823435.6,286046994.9,Y
1552823455.5,286046998.6,P
1552823475.3,286047000.8,N
1552823495.1,286047001.2,N
1552823515.9,286046998.1,N
1552823535.7,286046996.9,N
1552823555.5,286046996.9,N
1552823575.4,286046997.1,N
1552823595.2,286046996.6,N
1552823615.1,286046996.9,N
1552823616.0,286046996.9,N
1552823635.8,286046996.8,N
1552823655.6,286046996.7,N
1552823675.5,286046997.5,N
1552823695.3,286046995.0,Y
1552823715.1,286046996.8,P
1552823735.9,286046996.9,P
1552823755.7,286046997.4,P
1552823775.6,286047001.1,N
1552823795.4,286047000.7,N
1552823815.2,286046997.0,N
1552823835.1,286046996.5,N
1552823836.0,286046996.5,N
1552823855.8,286046999.0,N
1552823875.6,286046998.6,N
1552823895.5,286046999.3,N
1552823915.3,286046998.6,N
1552823935.2,286046999.0,N
1552823955.9,286046998.9,N
1552823975.7,286046998.9,N
1552823995.6,286046997.4,N
